Location: Saint-Gilles les Bains
(21.0539°S, 55.2287°E)
Time: 03:37:18
(UTC+04:00)

Hubble Space Telescope - Pass Details

Date: 22 April 2024
Orbit: 512 x 516 km, 28.5° (Epoch: 18 May)

Event Time Altitude Azimuth Distance (km) Brightness Sun altitude
Exits shadow 05:34:52 18° 225° (SW) 1,306 2.3 -14.2°
Maximum altitude 05:37:14 34° 170° (S) 876 1.8 -13.7°
Drops below altitude 10° 05:40:55 10° 104° (ESE) 1,748 4.5 -12.8°
Sets 05:43:19 0° 95° (E) 2,634 6.1 -12.3°
